Location: Lombard
(41.8800°N, 88.0080°W)
Time: 04:05:54
(UTC-05:00)

Vanguard 2 Rocket - Pass Details

Date: 25 February 2024
Orbit: 555 x 3307 km, 32.9° (Epoch: 12 April)

Event Time Altitude Azimuth Distance (km) Brightness Sun altitude
Rises 13:56:29 0° 232° (SW) 4,017 11.2 33.0°
Reaches altitude 10° 13:58:55 10° 225° (SW) 3,335 11.2 32.8°
Maximum altitude 14:07:11 45° 156° (SSE) 2,432 9.8 31.9°
Drops below altitude 10° 14:21:05 10° 91° (E) 5,507 10.6 30.3°
Sets 14:26:24 0° 87° (E) 6,858 11.0 29.7°
